Location: Geremba
(10.4250°N, 67.2394°W)
Time: 22:38:15
(UTC+00:00)

Cosmos 2218 Rocket - Pass Details

Date: 22 August 2024
Orbit: 956 x 1005 km, 82.9° (Epoch: 16 September)

Event Time Altitude Azimuth Distance (km) Brightness Sun altitude
Rises 09:08:07 0° 8° (N) 3,710 7.4 -17.9°
Reaches altitude 10° 09:10:47 10° 15° (NNE) 2,756 6.8 -17.3°
Maximum altitude 09:16:44 43° 85° (E) 1,354 5.3 -15.9°
Drops below altitude 10° 09:22:37 10° 155° (SSE) 2,726 6.5 -14.5°
Sets 09:25:14 0° 162° (SSE) 3,666 7.1 -13.9°
